sat.trackr.live / text

‹ back to catalog

ONEWEB-0163

NORAD 48061 · 2021-025V

PAYLOAD ACTIVE UNKNOWN

§ Identity

Operator
Country
UK
Launch date
2021-03-25
Launch site
VOSTO
Launch vehicle
Mass (kg)
RCS (m²)

Purposes: comms

External: N2YO · Heavens-Above · Gunter

§ Orbital elements

Epoch: 2026-09-19T21:18:57.195936Z

Period
109.63 min
Inclination
87.8921°
Eccentricity
0.0001608
Mean motion
13.13468181 rev/d
Perigee alt
1,208.6 km
Apogee alt
1,211.0 km
Semi-major
7,587.9 km
B*
7.3911e-5
RAAN
301.3838°
Arg perigee
96.8010°
Mean anomaly
263.3302°
Rev number
26,611

§ Raw data

ONEWEB-01631 48061U 21025V   26262.88816199  .00000040  00000+0  73911-4 0  99952 48061  87.8921 301.3838 0001608  96.8010 263.3302 13.13468181266112

JSON: /api/v1/satellites/48061 · /tle

For live sub-satellite position, see the globe view (requires WebGL).

§ Visibility from observer

Set your observer location to see the next 7 days of passes ≥ 10°. The values pass through the URL so the page stays shareable.

No JS? Fill the form by hand. The geolocation button needs JavaScript.